Flag for USA

Past Weather in 42°15'52.0"N, 89°05'50.2"W, USA — Yesterday and Last 2 Weeks

Currently: 23 °F. Partly sunny. (Weather station: Greater Rockford Airport, USA). See more current weather

Past Weather in 42°15'52.0"N, 89°05'50.2"W — Graph

°F

42°15'52.0"N, 89°05'50.2"W Temperature Yesterday

Maximum temperature yesterday: 44 °F (at 11:54 am)
Minimum temperature yesterday: 30 °F (at 11:54 pm)
Average temperature yesterday: 39 °F

High & Low Weather Summary for the Past Weeks

 TemperatureHumidityPressure
High45 °F (Feb 23, 1:54 pm)93% (Feb 28, 6:54 am)30.63 "Hg (Feb 28, 6:54 am)
Low-9 °F (Feb 17, 5:54 am)41% (Feb 14, 10:54 am)29.63 "Hg (Feb 22, 11:54 pm)
Average23 °F68%30.15 "Hg
* Reported Feb 14 6:54 am — Mar 1 6:54 am, 42°15'52.0"N, 89°05'50.2"W. Weather by CustomWeather, © 2021

Note: Actual official high and low records may vary slightly from our data, if they occured in-between our weather recording intervals... More about our weather records

42°15'52.0"N, 89°05'50.2"W Weather History for the Previous 24 Hours

Scroll right to see more
 ConditionsComfort  
Time TempWeatherWind HumidityBarometerVisibility
6:54 am
Mon, Mar 1
23 °FPartly sunny.9 mph65%30.20 "Hg10 mi
5:54 am22 °FOvercast.7 mph72%30.17 "Hg10 mi
4:54 am22 °FPassing clouds.8 mph68%30.16 "Hg10 mi
3:54 am24 °FClear.6 mph65%30.12 "Hg10 mi
2:54 am25 °FClear.10 mph69%30.10 "Hg10 mi
1:54 am26 °FClear.9 mph69%30.09 "Hg10 mi
12:54 am29 °FClear.14 mph69%30.07 "Hg10 mi
11:54 pm
Sun, Feb 28
30 °FClear.9 mph75%30.04 "Hg10 mi
10:54 pm31 °FClear.12 mph76%30.02 "Hg10 mi
9:54 pm34 °FClear.14 mph73%30.01 "Hg10 mi
8:54 pm35 °FClear.15 mph70%29.97 "Hg10 mi
7:54 pm36 °FPassing clouds.9 mph73%29.94 "Hg10 mi
6:54 pm37 °FPassing clouds.10 mph73%29.93 "Hg10 mi
5:54 pm38 °FPassing clouds.14 mph73%29.89 "Hg10 mi
4:54 pm39 °FPartly sunny.20 mph70%29.84 "Hg10 mi
3:54 pm40 °FOvercast.20 mph70%29.80 "Hg10 mi
2:54 pm42 °FOvercast.14 mph68%29.77 "Hg10 mi
1:54 pm42 °FMostly cloudy.14 mph76%29.75 "Hg8 mi
12:54 pm42 °FFog.14 mph85%29.73 "Hg4 mi
12:22 pm43 °FFog.14 mph86%29.73 "Hg5 mi
12:07 pm44 °FFog.13 mph85%29.73 "Hg4 mi
11:54 am44 °FFog.10 mph85%29.74 "Hg2 mi
10:54 am41 °FFog.8 mph89%29.74 "Hg0 mi
9:54 am40 °FFog.6 mph89%29.75 "Hg0 mi
9:38 am39 °FFog.5 mph93%29.73 "Hg0 mi
8:54 am38 °FFog.5 mph90%29.77 "Hg1 mi
Weather by CustomWeather, © 2021

See weather overview